Regional Weather Roundup
Issued by NWS

Home | Current Version | Previous Version | Graphics & Text | Print | Product List | Glossary On
Versions: 1 2 3 4 5 6 7 8 9 10 11 12 13 14 15 16 17 18 19 20 21 22 23 24 25 26 27 28 29 30 31 32 33 34 35 36 37 38 39 40 41 42 43 44 45 46 47 48 49 50
000
ASUS43 KOAX 020302
RWRNE

WEATHER ROUNDUP FOR NEBRASKA
NATIONAL WEATHER SERVICE OMAHA NE
1000 PM CDT WED APR 01 2015

NOTES: SATELLITE DATA IS BEING USED TO AUGMENT CLOUD COVER ABOVE
       12000 FEET.
       "FAIR" INDICATES FEW OR NO CLOUDS BELOW 12,000 FEET WITH NO
       SIGNIFICANT WEATHER AND/OR OBSTRUCTIONS TO VISIBILITY.

  * THESE STATIONS DO NOT REPORT WEATHER SUCH AS RAIN...SNOW OR FOG.

NEZ001>004-019>022-054>056-020400-
NEBRASKA PANHANDLE

CITY           SKY/WX    TMP DP  RH WIND       PRES   REMARKS
SCOTTSBLUFF    CLOUDY    45  24  43 N9        29.88R
ALLIANCE       CLOUDY    44  28  53 NE8       29.87R
CHADRON        CLOUDY    45  24  43 CALM      29.88R
SIDNEY         CLOUDY    47  28  47 N16G24    29.86R
$$

NEZ057>060-069>072-079>082-020400-
SOUTHWEST NEBRASKA

CITY           SKY/WX    TMP DP  RH WIND       PRES   REMARKS
NORTH PLATTE   CLOUDY    60  33  36 NW17      29.76R
IMPERIAL       CLOUDY    56  37  49 NW20G31   29.78R
LEXINGTON      MOCLDY    62  35  36 N18G26    29.70R
MCCOOK         CLOUDY    65  37  35 NE15G28   29.74R
$$

NEZ005>010-023>029-035>040-094-020400-
NORTH CENTRAL NEBRASKA

CITY           SKY/WX    TMP DP  RH WIND       PRES   REMARKS
VALENTINE      CLOUDY    53  21  28 NW18      29.81R
AINSWORTH      CLOUDY    55  23  28 N23G29    29.78R
BROKEN BOW     PTCLDY    60  32  34 N21G30    29.69R
ORD            MOCLDY    60  31  33 N17       29.68R
$$

NEZ041-046>049-061>064-073>077-083>087-020400-
SOUTH CENTRAL NEBRASKA

CITY           SKY/WX    TMP DP  RH WIND       PRES   REMARKS
GRAND ISLAND   TSTM      56  49  77 N13       29.70R
AURORA         TSTM      55  51  88 CALM      29.70R
HASTINGS       CLOUDY    58  47  66 N26G37    29.61F
KEARNEY *      CLOUDY    63  39  42 N28       29.65F
YORK           TSTM      55  52  88 N14G24    29.67R
$$

NEZ011>018-030>034-042>045-020400-
NORTHEAST NEBRASKA

CITY           SKY/WX    TMP DP  RH WIND       PRES   REMARKS
NORFOLK        CLOUDY    62  45  53 N20       29.62S
ALBION         CLOUDY    62  35  36 N12G20    29.66R
BLAIR          CLOUDY    66  49  54 NW26G33   29.62R
COLUMBUS *     CLOUDY    59  46  63 NE18G28   29.63R
FREMONT        TSTM      58  55  88 N5        29.64F
TEKAMAH        TSTM      58  54  86 NE7       29.66R FOG
$$

NEZ050>053-065>068-078-088>093-020400-
SOUTHEAST NEBRASKA

CITY           SKY/WX    TMP DP  RH WIND       PRES   REMARKS
LINCOLN        MOCLDY    72  52  49 NW13G28   29.60R THUNDER
OMAHA EPPLEY   CLOUDY    71  52  50 S21G30    29.56R
BEATRICE       MOCLDY    70  55  59 S18G26    29.54S
FALLS CITY     CLEAR     63  54  72 SE17      29.60F
NEBRASKA CITY  PTCLDY    65  53  64 S21G26    29.59S
$$

NEZ044-045-051>053-067-020400-
OMAHA AREA

CITY           SKY/WX    TMP DP  RH WIND       PRES   REMARKS
OMAHA EPPLEY   CLOUDY    71  52  50 S21G30    29.56R
BLAIR          CLOUDY    66  49  54 NW26G33   29.62R
FREMONT        TSTM      58  55  88 N5        29.64F
OFFUTT AFB     CLOUDY    69  54  59 SE24G32   29.57R
WAHOO          LGT RAIN  56  52  84 N28G45    29.61R
$$



USA.gov is the U.S. government's official web portal to all federal, state and local government web resources and services.